| time (UTC) | temp C | wind direction | speed KPH | gust KPH | rain 1hr cm | rain 24hr cm | rain mn cm | humidity % | barometer mb |
| 20260509112922 | 15 | 321 | 0.0 | 0.0 | 0.00 | 0.00 | 0.00 | 98 | 1013.9 |
| 20260509112419 | 15 | 318 | 0.0 | 0.0 | 0.00 | 0.00 | 0.00 | 98 | 1014.1 |
| 20260509111916 | 15 | 318 | 0.0 | 0.0 | 0.00 | 0.00 | 0.00 | 98 | 1013.6 |
| 20260509111413 | 15 | 321 | 0.0 | 0.0 | 0.00 | 0.00 | 0.00 | 98 | 1013.8 |
| 20260509110910 | 15 | 321 | 0.0 | 0.0 | 0.00 | 0.00 | 0.00 | 98 | 1013.7 |
| 20260509110406 | 15 | 316 | 0.0 | 0.0 | 0.00 | 0.00 | 0.00 | 98 | 1013.6 |
| 20260509105904 | 15 | 322 | 0.0 | 0.0 | 0.00 | 0.00 | 0.00 | 98 | 1013.6 |
| 20260509105403 | 15 | 320 | 0.0 | 0.0 | 0.00 | 0.00 | 0.00 | 98 | 1013.7 |
| 20260509104859 | 15 | 318 | 0.0 | 0.0 | 0.00 | 0.00 | 0.00 | 98 | 1013.3 |
| 20260509104356 | 15 | 320 | 0.0 | 0.0 | 0.00 | 0.00 | 0.00 | 98 | 1013.5 |
| 20260509103854 | 15 | 314 | 0.0 | 0.0 | 0.00 | 0.00 | 0.00 | 98 | 1013.2 |
| 20260509103350 | 15 | 314 | 0.0 | 0.0 | 0.00 | 0.00 | 0.00 | 98 | 1013.4 |
| 20260509102849 | 15 | 314 | 0.0 | 0.0 | 0.00 | 0.00 | 0.00 | 98 | 1013.3 |
| 20260509102346 | 15 | 314 | 0.0 | 0.0 | 0.00 | 0.00 | 0.00 | 98 | 1013.1 |
| 20260509101842 | 15 | 314 | 0.0 | 0.0 | 0.00 | 0.00 | 0.00 | 98 | 1012.9 |
| 20260509101338 | 15 | 314 | 0.0 | 0.0 | 0.00 | 0.00 | 0.00 | 98 | 1013.0 |
| 20260509100836 | 15 | 314 | 0.0 | 0.0 | 0.00 | 0.00 | 0.00 | 97 | 1013.3 |
| 20260509100333 | 15 | 314 | 0.0 | 0.0 | 0.00 | 0.00 | 0.00 | 97 | 1013.4 |
| 20260509095830 | 15 | 314 | 0.0 | 0.0 | 0.00 | 0.00 | 0.00 | 97 | 1013.0 |
| 20260509095327 | 15 | 314 | 0.0 | 0.0 | 0.00 | 0.00 | 0.00 | 97 | 1013.3 |
| 20260509094824 | 15 | 315 | 0.0 | 0.0 | 0.00 | 0.00 | 0.00 | 97 | 1013.2 |
| 20260509094321 | 15 | 316 | 0.0 | 0.0 | 0.00 | 0.00 | 0.00 | 97 | 1013.4 |
| 20260509093818 | 15 | 314 | 0.0 | 0.0 | 0.00 | 0.00 | 0.00 | 97 | 1013.5 |
| 20260509093315 | 15 | 315 | 0.0 | 0.0 | 0.00 | 0.00 | 0.00 | 97 | 1013.5 |
| 20260509092814 | 15 | 316 | 0.0 | 0.0 | 0.00 | 0.00 | 0.00 | 97 | 1013.4 |
| 20260509092311 | 15 | 314 | 0.0 | 0.0 | 0.00 | 0.00 | 0.00 | 97 | 1013.6 |
| 20260509091809 | 15 | 319 | 0.0 | 0.0 | 0.00 | 0.00 | 0.00 | 97 | 1013.3 |
| 20260509091306 | 15 | 320 | 0.0 | 0.0 | 0.00 | 0.00 | 0.00 | 97 | 1013.4 |
| 20260509090803 | 15 | 315 | 0.0 | 0.0 | 0.00 | 0.00 | 0.00 | 97 | 1013.5 |
| 20260509090300 | 15 | 315 | 0.0 | 0.0 | 0.00 | 0.00 | 0.00 | 97 | 1013.4 |
| 20260509085757 | 15 | 321 | 0.0 | 0.0 | 0.00 | 0.00 | 0.00 | 97 | 1013.7 |
| 20260509085255 | 15 | 316 | 0.0 | 0.0 | 0.00 | 0.00 | 0.00 | 97 | 1013.6 |
| 20260509084751 | 15 | 321 | 0.0 | 0.0 | 0.00 | 0.00 | 0.00 | 97 | 1013.4 |
| 20260509084248 | 15 | 321 | 0.0 | 0.0 | 0.00 | 0.00 | 0.00 | 97 | 1013.4 |
| 20260509083746 | 15 | 320 | 0.0 | 0.0 | 0.00 | 0.00 | 0.00 | 97 | 1013.4 |
| 20260509083242 | 15 | 316 | 0.0 | 0.0 | 0.00 | 0.00 | 0.00 | 97 | 1013.2 |
| 20260509082739 | 15 | 316 | 0.0 | 0.0 | 0.00 | 0.00 | 0.00 | 97 | 1013.1 |
| 20260509082236 | 15 | 316 | 0.0 | 0.0 | 0.00 | 0.00 | 0.00 | 96 | 1013.2 |
| 20260509081732 | 15 | 321 | 0.0 | 0.0 | 0.00 | 0.00 | 0.00 | 96 | 1013.4 |
| 20260509081230 | 15 | 315 | 0.0 | 0.0 | 0.00 | 0.00 | 0.00 | 96 | 1013.0 |
| 20260509080728 | 15 | 316 | 0.0 | 0.0 | 0.00 | 0.00 | 0.00 | 96 | 1013.4 |
| 20260509080225 | 16 | 322 | 0.0 | 0.0 | 0.00 | 0.00 | 0.00 | 96 | 1013.5 |
| 20260509075723 | 15 | 322 | 0.0 | 0.0 | 0.00 | 0.00 | 0.00 | 96 | 1013.6 |
| 20260509075221 | 15 | 322 | 0.0 | 0.0 | 0.00 | 0.00 | 0.00 | 96 | 1013.5 |
| 20260509074718 | 15 | 314 | 0.0 | 0.0 | 0.00 | 0.00 | 0.00 | 96 | 1013.9 |
| 20260509074215 | 16 | 322 | 0.0 | 0.0 | 0.00 | 0.00 | 0.00 | 96 | 1014.0 |
| 20260509073711 | 16 | 316 | 0.0 | 0.0 | 0.00 | 0.00 | 0.00 | 96 | 1013.7 |
| 20260509073208 | 15 | 320 | 0.0 | 0.0 | 0.00 | 0.00 | 0.00 | 96 | 1013.5 |
| 20260509072704 | 15 | 320 | 0.0 | 0.0 | 0.00 | 0.00 | 0.00 | 96 | 1013.6 |
| 20260509072201 | 15 | 317 | 0.0 | 0.0 | 0.00 | 0.00 | 0.00 | 96 | 1013.6 |
| 20260509071658 | 15 | 315 | 0.0 | 0.0 | 0.00 | 0.00 | 0.00 | 96 | 1013.8 |
| 20260509071155 | 15 | 316 | 0.0 | 0.0 | 0.00 | 0.00 | 0.00 | 96 | 1013.6 |
| 20260509070652 | 15 | 317 | 0.0 | 0.0 | 0.00 | 0.00 | 0.00 | 96 | 1013.8 |
| 20260509070148 | 15 | 314 | 0.0 | 0.0 | 0.00 | 0.00 | 0.00 | 95 | 1013.7 |
| 20260509065645 | 15 | 316 | 0.0 | 0.0 | 0.00 | 0.00 | 0.00 | 95 | 1013.8 |
| 20260509065141 | 16 | 315 | 0.0 | 0.0 | 0.00 | 0.00 | 0.00 | 95 | 1014.1 |
| 20260509064638 | 16 | 314 | 0.0 | 0.0 | 0.00 | 0.00 | 0.00 | 95 | 1014.3 |
| 20260509064136 | 16 | 322 | 0.0 | 0.0 | 0.00 | 0.00 | 0.00 | 95 | 1013.9 |
| 20260509063632 | 16 | 317 | 0.0 | 0.0 | 0.00 | 0.00 | 0.00 | 95 | 1014.0 |
| 20260509063129 | 16 | 316 | 0.0 | 0.0 | 0.00 | 0.00 | 0.00 | 95 | 1014.4 |
| 20260509062626 | 16 | 313 | 0.0 | 0.0 | 0.00 | 0.00 | 0.00 | 95 | 1014.5 |
| 20260509062123 | 16 | 316 | 0.0 | 0.0 | 0.00 | 0.00 | 0.00 | 95 | 1014.5 |
| 20260509061620 | 16 | 315 | 0.0 | 0.0 | 0.00 | 0.00 | 0.00 | 95 | 1014.8 |
| 20260509061117 | 16 | 316 | 0.0 | 0.0 | 0.00 | 0.00 | 0.00 | 94 | 1015.0 |
| 20260509060615 | 16 | 317 | 0.0 | 0.0 | 0.00 | 0.00 | 0.00 | 94 | 1014.8 |
| 20260509060110 | 16 | 323 | 0.0 | 0.0 | 0.00 | 0.00 | 0.00 | 94 | 1015.0 |
| 20260509055606 | 16 | 316 | 0.0 | 0.0 | 0.00 | 0.00 | 0.00 | 94 | 1014.8 |
| 20260509055102 | 16 | 324 | 0.0 | 0.0 | 0.00 | 0.00 | 0.00 | 94 | 1014.9 |
| 20260509054559 | 16 | 322 | 0.0 | 0.0 | 0.00 | 0.00 | 0.00 | 94 | 1015.0 |
| 20260509054057 | 16 | 317 | 0.0 | 0.0 | 0.00 | 0.00 | 0.00 | 94 | 1015.1 |
| 20260509053555 | 16 | 315 | 0.0 | 0.0 | 0.00 | 0.00 | 0.00 | 94 | 1015.0 |
| 20260509053052 | 16 | 317 | 0.0 | 0.0 | 0.00 | 0.00 | 0.00 | 94 | 1014.7 |
| 20260509052550 | 16 | 315 | 0.0 | 0.0 | 0.00 | 0.00 | 0.00 | 94 | 1014.6 |
| 20260509052048 | 16 | 316 | 0.0 | 0.0 | 0.00 | 0.00 | 0.00 | 93 | 1014.7 |
| 20260509051545 | 16 | 316 | 0.0 | 0.0 | 0.00 | 0.00 | 0.00 | 93 | 1015.1 |
| 20260509051042 | 16 | 317 | 0.0 | 0.0 | 0.00 | 0.00 | 0.00 | 93 | 1015.2 |
| 20260509050539 | 16 | 316 | 0.0 | 0.0 | 0.00 | 0.00 | 0.00 | 93 | 1015.4 |
| 20260509050035 | 16 | 317 | 0.0 | 0.0 | 0.00 | 0.00 | 0.00 | 93 | 1015.8 |
| 20260509045533 | 16 | 317 | 0.0 | 0.0 | 0.00 | 0.00 | 0.00 | 93 | 1015.8 |
| 20260509045029 | 16 | 317 | 0.0 | 0.0 | 0.00 | 0.00 | 0.00 | 92 | 1015.9 |
| 20260509044527 | 16 | 313 | 0.0 | 0.0 | 0.00 | 0.00 | 0.00 | 92 | 1016.2 |
| 20260509044024 | 16 | 313 | 0.0 | 0.0 | 0.00 | 0.00 | 0.00 | 92 | 1016.2 |
| 20260509043520 | 16 | 315 | 0.0 | 0.0 | 0.00 | 0.00 | 0.00 | 92 | 1016.2 |
| 20260509043016 | 16 | 320 | 0.0 | 0.0 | 0.00 | 0.00 | 0.00 | 92 | 1015.7 |
| 20260509042513 | 16 | 319 | 0.0 | 0.0 | 0.00 | 0.00 | 0.00 | 92 | 1016.1 |
| 20260509042009 | 16 | 321 | 0.0 | 0.0 | 0.00 | 0.00 | 0.00 | 92 | 1016.1 |
| 20260509041506 | 16 | 328 | 0.0 | 0.0 | 0.00 | 0.00 | 0.00 | 92 | 1016.1 |
| 20260509041004 | 16 | 321 | 0.0 | 0.0 | 0.00 | 0.00 | 0.00 | 92 | 1015.6 |
| 20260509040501 | 16 | 317 | 0.0 | 0.0 | 0.00 | 0.00 | 0.00 | 92 | 1015.5 |
| 20260509035958 | 16 | 315 | 0.0 | 0.0 | 0.00 | 0.00 | 0.00 | 92 | 1015.9 |
| 20260509035455 | 16 | 316 | 0.0 | 0.0 | 0.00 | 0.00 | 0.00 | 92 | 1016.3 |
| 20260509034951 | 16 | 315 | 1.6 | 1.6 | 0.00 | 0.00 | 0.00 | 92 | 1016.2 |
| 20260509034449 | 16 | 327 | 1.6 | 1.6 | 0.00 | 0.00 | 0.00 | 92 | 1015.8 |
| 20260509033946 | 16 | 326 | 0.0 | 0.0 | 0.00 | 0.00 | 0.00 | 92 | 1016.2 |
| 20260509033443 | 16 | 321 | 0.0 | 0.0 | 0.00 | 0.00 | 0.00 | 92 | 1016.5 |
| 20260509032940 | 16 | 324 | 0.0 | 1.6 | 0.00 | 0.00 | 0.00 | 92 | 1016.1 |
| 20260509032437 | 16 | 325 | 0.0 | 0.0 | 0.00 | 0.00 | 0.00 | 92 | 1016.2 |
| 20260509031935 | 16 | 320 | 0.0 | 0.0 | 0.00 | 0.00 | 0.00 | 92 | 1016.4 |
| 20260509031432 | 16 | 321 | 0.0 | 0.0 | 0.00 | 0.00 | 0.00 | 91 | 1016.4 |
| 20260509030929 | 16 | 320 | 0.0 | 0.0 | 0.00 | 0.00 | 0.00 | 91 | 1016.7 |
| 20260509030427 | 16 | 322 | 0.0 | 0.0 | 0.00 | 0.00 | 0.00 | 91 | 1016.6 |
| 20260509025924 | 16 | 324 | 0.0 | 0.0 | 0.00 | 0.00 | 0.00 | 91 | 1016.6 |
| 20260509025420 | 16 | 316 | 0.0 | 0.0 | 0.00 | 0.00 | 0.00 | 90 | 1016.5 |
| 20260509024915 | 16 | 316 | 0.0 | 0.0 | 0.00 | 0.00 | 0.00 | 90 | 1016.8 |
| 20260509024411 | 16 | 325 | 0.0 | 0.0 | 0.00 | 0.00 | 0.00 | 90 | 1016.8 |
| 20260509023909 | 17 | 321 | 0.0 | 0.0 | 0.00 | 0.00 | 0.00 | 90 | 1016.6 |
| 20260509023406 | 17 | 317 | 0.0 | 0.0 | 0.00 | 0.00 | 0.00 | 90 | 1016.6 |
| 20260509022902 | 17 | 317 | 0.0 | 0.0 | 0.00 | 0.00 | 0.00 | 90 | 1016.4 |
| 20260509022359 | 17 | 317 | 0.0 | 0.0 | 0.00 | 0.00 | 0.00 | 89 | 1016.6 |
| 20260509021856 | 17 | 316 | 0.0 | 0.0 | 0.00 | 0.00 | 0.00 | 89 | 1016.4 |
| 20260509021353 | 17 | 317 | 0.0 | 0.0 | 0.00 | 0.00 | 0.00 | 89 | 1016.6 |
| 20260509020851 | 17 | 316 | 0.0 | 0.0 | 0.00 | 0.00 | 0.00 | 88 | 1016.5 |
| 20260509020349 | 17 | 316 | 0.0 | 0.0 | 0.00 | 0.00 | 0.00 | 88 | 1016.4 |
| 20260509015846 | 17 | 316 | 0.0 | 0.0 | 0.00 | 0.00 | 0.00 | 88 | 1016.4 |
| 20260509015344 | 17 | 323 | 0.0 | 0.0 | 0.00 | 0.00 | 0.00 | 88 | 1016.5 |
| 20260509014840 | 17 | 328 | 0.0 | 1.6 | 0.00 | 0.00 | 0.00 | 87 | 1016.1 |
| 20260509014337 | 17 | 327 | 1.6 | 1.6 | 0.00 | 0.00 | 0.00 | 87 | 1016.2 |
| 20260509013834 | 17 | 321 | 0.0 | 0.0 | 0.00 | 0.00 | 0.00 | 87 | 1015.9 |
| 20260509013331 | 17 | 320 | 0.0 | 0.0 | 0.00 | 0.00 | 0.00 | 87 | 1016.2 |
| 20260509012827 | 17 | 319 | 0.0 | 0.0 | 0.00 | 0.00 | 0.00 | 87 | 1016.2 |
| 20260509012323 | 17 | 316 | 0.0 | 0.0 | 0.00 | 0.00 | 0.00 | 86 | 1016.1 |
| 20260509011821 | 17 | 316 | 0.0 | 0.0 | 0.00 | 0.00 | 0.00 | 86 | 1016.3 |
| 20260509011318 | 17 | 318 | 0.0 | 0.0 | 0.00 | 0.00 | 0.00 | 85 | 1016.3 |
| 20260509010816 | 17 | 317 | 0.0 | 0.0 | 0.00 | 0.00 | 0.00 | 85 | 1016.2 |
| 20260509010312 | 17 | 320 | 0.0 | 0.0 | 0.00 | 0.00 | 0.00 | 85 | 1016.0 |
| 20260509005809 | 17 | 318 | 0.0 | 0.0 | 0.00 | 0.00 | 0.00 | 84 | 1016.0 |
| 20260509005308 | 17 | 320 | 0.0 | 0.0 | 0.00 | 0.00 | 0.00 | 84 | 1015.9 |
| 20260509004802 | 17 | 325 | 0.0 | 0.0 | 0.00 | 0.00 | 0.00 | 83 | 1015.8 |
| 20260509004259 | 17 | 324 | 0.0 | 0.0 | 0.00 | 0.00 | 0.00 | 83 | 1015.8 |
| 20260509003757 | 18 | 319 | 0.0 | 0.0 | 0.00 | 0.00 | 0.00 | 83 | 1015.7 |
| 20260509003254 | 18 | 323 | 0.0 | 0.0 | 0.00 | 0.00 | 0.00 | 82 | 1015.6 |
| 20260509002751 | 18 | 321 | 0.0 | 0.0 | 0.00 | 0.00 | 0.00 | 82 | 1015.6 |
| 20260509002249 | 18 | 316 | 0.0 | 0.0 | 0.00 | 0.00 | 0.00 | 81 | 1015.4 |
| 20260509001746 | 18 | 316 | 0.0 | 0.0 | 0.00 | 0.00 | 0.00 | 81 | 1015.7 |
| 20260509001242 | 18 | 321 | 0.0 | 0.0 | 0.00 | 0.00 | 0.00 | 80 | 1015.8 |
| 20260509000740 | 18 | 317 | 0.0 | 0.0 | 0.00 | 0.00 | 0.00 | 80 | 1015.6 |
| 20260509000237 | 18 | 318 | 1.6 | 1.6 | 0.00 | 0.00 | 0.00 | 79 | 1015.3 |
| 20260508235734 | 18 | 348 | 1.6 | 1.6 | 0.00 | 0.00 | 0.00 | 78 | 1015.5 |
| 20260508235230 | 18 | 323 | 0.0 | 0.0 | 0.00 | 0.00 | 0.00 | 78 | 1015.6 |
| 20260508234728 | 18 | 325 | 0.0 | 1.6 | 0.00 | 0.00 | 0.00 | 77 | 1015.4 |
| 20260508234224 | 18 | 316 | 1.6 | 3.2 | 0.00 | 0.00 | 0.00 | 77 | 1015.2 |
| 20260508233718 | 18 | 322 | 0.0 | 0.0 | 0.00 | 0.00 | 0.00 | 76 | 1015.3 |
| 20260508233215 | 19 | 324 | 1.6 | 1.6 | 0.00 | 0.00 | 0.00 | 76 | 1015.3 |
| 20260508232713 | 19 | 324 | 0.0 | 0.0 | 0.00 | 0.00 | 0.00 | 76 | 1015.1 |
| 20260508232209 | 19 | 317 | 0.0 | 0.0 | 0.00 | 0.00 | 0.00 | 75 | 1015.2 |
| 20260508231707 | 19 | 326 | 0.0 | 1.6 | 0.00 | 0.00 | 0.00 | 75 | 1015.2 |
| 20260508231204 | 19 | 332 | 0.0 | 1.6 | 0.00 | 0.00 | 0.00 | 74 | 1015.2 |
| 20260508230701 | 20 | 334 | 1.6 | 1.6 | 0.00 | 0.00 | 0.00 | 74 | 1015.3 |
| 20260508230156 | 20 | 324 | 1.6 | 1.6 | 0.00 | 0.00 | 0.00 | 75 | 1015.3 |
| 20260508225655 | 20 | 326 | 1.6 | 1.6 | 0.00 | 0.00 | 0.00 | 75 | 1015.5 |
| 20260508225150 | 20 | 327 | 1.6 | 1.6 | 0.00 | 0.00 | 0.00 | 75 | 1015.6 |
| 20260508224649 | 20 | 321 | 0.0 | 0.0 | 0.00 | 0.00 | 0.00 | 75 | 1015.6 |
| 20260508224146 | 20 | 352 | 1.6 | 3.2 | 0.00 | 0.00 | 0.00 | 74 | 1015.5 |
| 20260508223643 | 20 | 314 | 0.0 | 0.0 | 0.00 | 0.00 | 0.00 | 74 | 1015.2 |
| 20260508223140 | 20 | 9 | 3.2 | 3.2 | 0.00 | 0.00 | 0.00 | 74 | 1015.4 |
| 20260508222638 | 20 | 343 | 1.6 | 3.2 | 0.00 | 0.00 | 0.00 | 74 | 1015.1 |
| 20260508222135 | 21 | 4 | 1.6 | 3.2 | 0.00 | 0.00 | 0.00 | 73 | 1015.3 |
| 20260508221631 | 21 | 322 | 0.0 | 0.0 | 0.00 | 0.00 | 0.00 | 74 | 1015.2 |
| 20260508221127 | 21 | 331 | 4.8 | 8.0 | 0.00 | 0.00 | 0.00 | 73 | 1015.5 |
| 20260508220624 | 21 | 346 | 4.8 | 4.8 | 0.00 | 0.00 | 0.00 | 73 | 1015.3 |
| 20260508220120 | 21 | 343 | 3.2 | 3.2 | 0.00 | 0.00 | 0.00 | 73 | 1015.3 |
| 20260508215617 | 21 | 340 | 3.2 | 3.2 | 0.00 | 0.00 | 0.00 | 72 | 1015.1 |
| 20260508215114 | 21 | 6 | 9.7 | 11.3 | 0.00 | 0.00 | 0.00 | 71 | 1015.2 |
| 20260508214611 | 22 | 318 | 1.6 | 3.2 | 0.00 | 0.00 | 0.00 | 70 | 1015.1 |
| 20260508214108 | 22 | 312 | 4.8 | 4.8 | 0.00 | 0.00 | 0.00 | 69 | 1015.0 |
| 20260508213604 | 22 | 3 | 4.8 | 4.8 | 0.00 | 0.00 | 0.00 | 68 | 1015.1 |
| 20260508213100 | 23 | 330 | 0.0 | 1.6 | 0.00 | 0.00 | 0.00 | 65 | 1014.8 |
| 20260508212557 | 24 | 303 | 1.6 | 1.6 | 0.00 | 0.00 | 0.00 | 60 | 1014.8 |
| 20260508212054 | 24 | 326 | 0.0 | 1.6 | 0.00 | 0.00 | 0.00 | 56 | 1015.1 |
| 20260508211549 | 24 | 305 | 1.6 | 1.6 | 0.00 | 0.00 | 0.00 | 54 | 1015.2 |
| 20260508211045 | 23 | 301 | 0.0 | 1.6 | 0.00 | 0.00 | 0.00 | 56 | 1015.2 |
| 20260508210542 | 23 | 309 | 0.0 | 1.6 | 0.00 | 0.00 | 0.00 | 59 | 1015.0 |
| 20260508210040 | 24 | 314 | 0.0 | 0.0 | 0.00 | 0.00 | 0.00 | 60 | 1015.1 |
| 20260508205537 | 23 | 322 | 0.0 | 0.0 | 0.00 | 0.00 | 0.00 | 59 | 1015.1 |
| 20260508205033 | 24 | 307 | 0.0 | 1.6 | 0.00 | 0.00 | 0.00 | 60 | 1014.9 |
| 20260508204530 | 25 | 321 | 0.0 | 0.0 | 0.00 | 0.00 | 0.00 | 55 | 1014.9 |
| 20260508204025 | 25 | 17 | 4.8 | 4.8 | 0.00 | 0.00 | 0.00 | 53 | 1015.1 |
| 20260508203522 | 24 | 307 | 0.0 | 0.0 | 0.00 | 0.00 | 0.00 | 54 | 1014.7 |
| 20260508203018 | 23 | 326 | 0.0 | 1.6 | 0.00 | 0.00 | 0.00 | 55 | 1015.1 |
| 20260508202515 | 24 | 355 | 1.6 | 3.2 | 0.00 | 0.00 | 0.00 | 52 | 1015.3 |
| 20260508202012 | 24 | 332 | 0.0 | 1.6 | 0.00 | 0.00 | 0.00 | 54 | 1015.3 |
| 20260508201509 | 24 | 320 | 0.0 | 1.6 | 0.00 | 0.00 | 0.00 | 55 | 1015.1 |
| 20260508201005 | 25 | 318 | 0.0 | 1.6 | 0.00 | 0.00 | 0.00 | 53 | 1015.1 |
| 20260508200502 | 25 | 321 | 0.0 | 1.6 | 0.00 | 0.00 | 0.00 | 53 | 1015.2 |
| 20260508195956 | 24 | 326 | 0.0 | 0.0 | 0.00 | 0.00 | 0.00 | 58 | 1015.2 |
| 20260508195455 | 24 | 310 | 0.0 | 0.0 | 0.00 | 0.00 | 0.00 | 60 | 1015.2 |
| 20260508194950 | 24 | 311 | 1.6 | 1.6 | 0.00 | 0.00 | 0.00 | 56 | 1015.7 |
| 20260508194448 | 24 | 323 | 1.6 | 1.6 | 0.00 | 0.00 | 0.00 | 51 | 1015.7 |
| 20260508193945 | 23 | 321 | 0.0 | 1.6 | 0.00 | 0.00 | 0.00 | 52 | 1015.9 |
| 20260508193441 | 23 | 318 | 0.0 | 0.0 | 0.00 | 0.00 | 0.00 | 55 | 1015.9 |
| 20260508192938 | 23 | 269 | 0.0 | 1.6 | 0.00 | 0.00 | 0.00 | 58 | 1016.2 |
| 20260508192435 | 24 | 19 | 1.6 | 1.6 | 0.00 | 0.00 | 0.00 | 55 | 1015.9 |
| 20260508191932 | 23 | 327 | 1.6 | 1.6 | 0.00 | 0.00 | 0.00 | 54 | 1016.0 |
| 20260508191429 | 23 | 324 | 0.0 | 1.6 | 0.00 | 0.00 | 0.00 | 53 | 1015.7 |
| 20260508190925 | 23 | 314 | 1.6 | 1.6 | 0.00 | 0.00 | 0.00 | 55 | 1015.9 |
| 20260508190423 | 23 | 151 | 4.8 | 4.8 | 0.00 | 0.00 | 0.00 | 57 | 1016.0 |
| 20260508185919 | 23 | 296 | 0.0 | 1.6 | 0.00 | 0.00 | 0.00 | 56 | 1015.9 |
| 20260508185417 | 23 | 323 | 0.0 | 0.0 | 0.00 | 0.00 | 0.00 | 53 | 1016.1 |
| 20260508184914 | 23 | 357 | 3.2 | 3.2 | 0.00 | 0.00 | 0.00 | 53 | 1016.0 |
| 20260508184411 | 23 | 331 | 0.0 | 1.6 | 0.00 | 0.00 | 0.00 | 56 | 1016.2 |
| 20260508183908 | 23 | 329 | 3.2 | 3.2 | 0.00 | 0.00 | 0.00 | 53 | 1016.6 |
| 20260508183404 | 24 | 79 | 1.6 | 3.2 | 0.00 | 0.00 | 0.00 | 55 | 1016.5 |
| 20260508182859 | 24 | 302 | 1.6 | 3.2 | 0.00 | 0.00 | 0.00 | 56 | 1016.5 |
| 20260508182356 | 24 | 316 | 0.0 | 1.6 | 0.00 | 0.00 | 0.00 | 55 | 1016.4 |
| 20260508181847 | 23 | 319 | 0.0 | 0.0 | 0.00 | 0.00 | 0.00 | 54 | 1016.5 |
| 20260508181343 | 23 | 265 | 0.0 | 1.6 | 0.00 | 0.00 | 0.00 | 56 | 1016.7 |
| 20260508180841 | 23 | 310 | 1.6 | 3.2 | 0.00 | 0.00 | 0.00 | 53 | 1016.7 |
| 20260508180337 | 24 | 354 | 1.6 | 3.2 | 0.00 | 0.00 | 0.00 | 56 | 1016.8 |
| 20260508175833 | 23 | 306 | 1.6 | 1.6 | 0.00 | 0.00 | 0.00 | 55 | 1016.8 |
| 20260508175330 | 23 | 314 | 0.0 | 0.0 | 0.00 | 0.00 | 0.00 | 55 | 1016.8 |
| 20260508174829 | 23 | 296 | 1.6 | 1.6 | 0.00 | 0.00 | 0.00 | 57 | 1017.0 |
| 20260508174326 | 23 | 317 | 0.0 | 0.0 | 0.00 | 0.00 | 0.00 | 57 | 1016.9 |
| 20260508173822 | 23 | 329 | 0.0 | 0.0 | 0.00 | 0.00 | 0.00 | 58 | 1017.0 |
| 20260508173319 | 23 | 286 | 0.0 | 1.6 | 0.00 | 0.00 | 0.00 | 54 | 1017.2 |
| 20260508172815 | 23 | 280 | 0.0 | 1.6 | 0.00 | 0.00 | 0.00 | 52 | 1016.8 |
| 20260508172312 | 24 | 22 | 3.2 | 4.8 | 0.00 | 0.00 | 0.00 | 55 | 1017.1 |
| 20260508171809 | 23 | 328 | 0.0 | 0.0 | 0.00 | 0.00 | 0.00 | 54 | 1017.1 |
| 20260508171305 | 24 | 287 | 1.6 | 3.2 | 0.00 | 0.00 | 0.00 | 57 | 1017.1 |
| 20260508170802 | 23 | 321 | 1.6 | 3.2 | 0.00 | 0.00 | 0.00 | 53 | 1017.2 |
| 20260508170300 | 24 | 283 | 0.0 | 0.0 | 0.00 | 0.00 | 0.00 | 56 | 1017.5 |
| 20260508165756 | 23 | 334 | 0.0 | 0.0 | 0.00 | 0.00 | 0.00 | 55 | 1017.5 |
| 20260508165253 | 23 | 273 | 0.0 | 1.6 | 0.00 | 0.00 | 0.00 | 54 | 1017.4 |
| 20260508164749 | 23 | 344 | 4.8 | 8.0 | 0.00 | 0.00 | 0.00 | 55 | 1017.4 |
| 20260508164246 | 22 | 273 | 1.6 | 3.2 | 0.00 | 0.00 | 0.00 | 57 | 1017.4 |
| 20260508163744 | 22 | 310 | 1.6 | 3.2 | 0.00 | 0.00 | 0.00 | 55 | 1017.5 |
| 20260508163242 | 22 | 310 | 1.6 | 1.6 | 0.00 | 0.00 | 0.00 | 58 | 1017.5 |
| 20260508162737 | 22 | 307 | 1.6 | 3.2 | 0.00 | 0.00 | 0.00 | 55 | 1017.6 |
| 20260508162234 | 22 | 309 | 1.6 | 1.6 | 0.00 | 0.00 | 0.00 | 59 | 1017.7 |
| 20260508161731 | 22 | 300 | 0.0 | 0.0 | 0.00 | 0.00 | 0.00 | 60 | 1018.0 |
| 20260508161228 | 22 | 313 | 3.2 | 3.2 | 0.00 | 0.00 | 0.00 | 56 | 1017.7 |
| 20260508160726 | 22 | 308 | 1.6 | 3.2 | 0.00 | 0.00 | 0.00 | 60 | 1017.9 |
| 20260508160225 | 22 | 299 | 1.6 | 3.2 | 0.00 | 0.00 | 0.00 | 63 | 1018.0 |
| 20260508155720 | 22 | 46 | 3.2 | 3.2 | 0.00 | 0.00 | 0.00 | 59 | 1018.3 |
| 20260508155218 | 22 | 295 | 1.6 | 3.2 | 0.00 | 0.00 | 0.00 | 61 | 1018.4 |
| 20260508154714 | 22 | 251 | 1.6 | 3.2 | 0.00 | 0.00 | 0.00 | 59 | 1018.2 |
| 20260508154212 | 21 | 9 | 4.8 | 4.8 | 0.00 | 0.00 | 0.00 | 63 | 1018.5 |
| 20260508153708 | 21 | 344 | 6.4 | 11.3 | 0.00 | 0.00 | 0.00 | 62 | 1018.5 |
| 20260508153206 | 21 | 314 | 0.0 | 1.6 | 0.00 | 0.00 | 0.00 | 63 | 1018.5 |
| 20260508152702 | 21 | 336 | 1.6 | 1.6 | 0.00 | 0.00 | 0.00 | 65 | 1018.6 |
| 20260508152158 | 21 | 305 | 0.0 | 1.6 | 0.00 | 0.00 | 0.00 | 63 | 1018.4 |
| 20260508151654 | 20 | 324 | 1.6 | 1.6 | 0.00 | 0.00 | 0.00 | 68 | 1018.6 |
| 20260508151151 | 20 | 269 | 1.6 | 1.6 | 0.00 | 0.00 | 0.00 | 67 | 1018.5 |
| 20260508150648 | 20 | 325 | 1.6 | 1.6 | 0.00 | 0.00 | 0.00 | 67 | 1018.6 |
| 20260508150145 | 20 | 322 | 3.2 | 3.2 | 0.00 | 0.00 | 0.00 | 67 | 1018.6 |
| 20260508145641 | 20 | 319 | 0.0 | 1.6 | 0.00 | 0.00 | 0.00 | 71 | 1018.5 |
| 20260508145137 | 20 | 297 | 0.0 | 0.0 | 0.00 | 0.00 | 0.00 | 68 | 1018.4 |
| 20260508144635 | 20 | 10 | 3.2 | 3.2 | 0.00 | 0.00 | 0.00 | 71 | 1018.7 |
| 20260508144132 | 20 | 312 | 0.0 | 0.0 | 0.00 | 0.00 | 0.00 | 71 | 1018.6 |
| 20260508143630 | 19 | 340 | 1.6 | 3.2 | 0.00 | 0.00 | 0.00 | 72 | 1018.6 |
| 20260508143126 | 20 | 309 | 1.6 | 3.2 | 0.00 | 0.00 | 0.00 | 69 | 1018.5 |
| 20260508142623 | 19 | 329 | 1.6 | 1.6 | 0.00 | 0.00 | 0.00 | 72 | 1018.6 |
| 20260508142119 | 19 | 304 | 6.4 | 9.7 | 0.00 | 0.00 | 0.00 | 74 | 1018.4 |
| 20260508141616 | 19 | 323 | 1.6 | 1.6 | 0.00 | 0.00 | 0.00 | 72 | 1018.2 |
| 20260508141114 | 19 | 312 | 1.6 | 3.2 | 0.00 | 0.00 | 0.00 | 70 | 1018.1 |
| 20260508140611 | 20 | 351 | 4.8 | 4.8 | 0.00 | 0.00 | 0.00 | 76 | 1018.0 |
| 20260508140108 | 19 | 319 | 0.0 | 0.0 | 0.00 | 0.00 | 0.00 | 78 | 1018.1 |
| 20260508135603 | 18 | 305 | 1.6 | 3.2 | 0.00 | 0.00 | 0.00 | 82 | 1018.0 |
| 20260508135059 | 18 | 278 | 1.6 | 3.2 | 0.00 | 0.00 | 0.00 | 78 | 1018.1 |
| 20260508134556 | 18 | 261 | 3.2 | 3.2 | 0.00 | 0.00 | 0.00 | 82 | 1018.2 |
| 20260508134053 | 17 | 313 | 1.6 | 1.6 | 0.00 | 0.00 | 0.00 | 82 | 1018.2 |
| 20260508133550 | 17 | 276 | 3.2 | 3.2 | 0.00 | 0.00 | 0.00 | 85 | 1017.7 |
| 20260508133047 | 17 | 331 | 1.6 | 1.6 | 0.00 | 0.00 | 0.00 | 86 | 1017.7 |
| 20260508132545 | 17 | 288 | 0.0 | 1.6 | 0.00 | 0.00 | 0.00 | 88 | 1017.8 |
| 20260508132041 | 16 | 328 | 1.6 | 1.6 | 0.00 | 0.00 | 0.00 | 90 | 1017.5 |
| 20260508131537 | 16 | 315 | 3.2 | 3.2 | 0.00 | 0.00 | 0.00 | 92 | 1017.8 |
| 20260508131034 | 16 | 337 | 1.6 | 1.6 | 0.00 | 0.00 | 0.00 | 93 | 1017.7 |
| 20260508130531 | 16 | 324 | 1.6 | 1.6 | 0.00 | 0.00 | 0.00 | 94 | 1017.8 |
| 20260508130027 | 15 | 310 | 1.6 | 1.6 | 0.00 | 0.00 | 0.00 | 96 | 1017.7 |
| 20260508125523 | 16 | 313 | 1.6 | 1.6 | 0.00 | 0.00 | 0.00 | 97 | 1017.5 |
| 20260508125021 | 15 | 273 | 1.6 | 3.2 | 0.00 | 0.00 | 0.00 | 98 | 1017.5 |
| 20260508124518 | 15 | 311 | 0.0 | 0.0 | 0.00 | 0.00 | 0.00 | 98 | 1017.5 |
| 20260508124015 | 15 | 320 | 0.0 | 0.0 | 0.00 | 0.00 | 0.00 | 99 | 1017.6 |
| 20260508123514 | 15 | 315 | 0.0 | 1.6 | 0.00 | 0.00 | 0.00 | 99 | 1017.4 |
| 20260508123010 | 15 | 314 | 0.0 | 0.0 | 0.00 | 0.00 | 0.00 | 99 | 1017.3 |
| 20260508122507 | 15 | 309 | 0.0 | 0.0 | 0.00 | 0.00 | 0.00 | 99 | 1017.4 |
| 20260508121958 | 15 | 322 | 1.6 | 1.6 | 0.00 | 0.00 | 0.00 | 99 | 1017.1 |
| 20260508121457 | 14 | 303 | 0.0 | 1.6 | 0.00 | 0.00 | 0.00 | 99 | 1017.0 |
| 20260508120954 | 14 | 316 | 0.0 | 0.0 | 0.00 | 0.00 | 0.00 | 99 | 1017.1 |
| 20260508120452 | 14 | 317 | 0.0 | 0.0 | 0.00 | 0.00 | 0.00 | 99 | 1017.1 |
| 20260508115950 | 14 | 322 | 0.0 | 1.6 | 0.00 | 0.00 | 0.00 | 99 | 1017.0 |
| 20260508115447 | 14 | 323 | 1.6 | 1.6 | 0.00 | 0.00 | 0.00 | 99 | 1017.0 |
| 20260508114944 | 14 | 316 | 0.0 | 0.0 | 0.00 | 0.00 | 0.00 | 99 | 1016.9 |
| 20260508114441 | 13 | 318 | 0.0 | 0.0 | 0.00 | 0.00 | 0.00 | 99 | 1016.7 |
| 20260508113937 | 13 | 324 | 1.6 | 1.6 | 0.00 | 0.00 | 0.00 | 99 | 1016.5 |
| 20260508113435 | 13 | 316 | 0.0 | 0.0 | 0.00 | 0.00 | 0.00 | 99 | 1016.6 |